Cloud_Cover
100 100 100 100 89 100 100 91 68 78 100 100 65 7 4 5 5 5 4 10 74 29
100 100 100 100 100 100 100 100 100 100 100 76 60 11 5 5 1 0 0 0 2 5
100 100 100 100 100 100 100 100 100 100 78 75 35 23 5 4 5 0 0 0 0 0
100 100 100 100 100 100 100 100 100 100 100 97 94 47 8 4 4 3 4 4 0 0
43 100 100 100 100 100 100 100 100 100 100 100 100 100 94 51 34 49 27 5 5 4
5 6 95 100 100 100 100 100 99 99 100 100 100 100 100 100 100 100 95 37 21 6
94 15 6 98 100 100 100 100 100 100 100 100 100 100 100 100 100 100 31 90 68 53
79 30 2 4 100 100 100 100 100 94 100 100 100 100 100 100 97 53 22 11 11 63
0 0 4 4 36 100 100 100 100 8 5 83 100 100 74 78 94 49 19 5 6 4
0 0 0 0 4 6 83 100 94 85 7 5 5 73 53 91 93 78 8 5 0 0
5 5 3 5 5 4 1 0 4 54 36 11 5 5 5 5 5 4 2 0 0 0
90 85 98 96 99 5 5 3 5 4 1 4 5 4 3 12 2 0 0 0 0 0
100 100 99 54 51 8 5 5 5 5 3 5 5 4 5 3 1 0 0 0 4 2
82 99 86 38 42 100 64 75 28 19 85 100 30 98 86 43 98 39 1 30 11 0